Temperature
5 4 4 4 4 4 3 3 2 1 2 4 4 4 3 3 3 3 3 3 3 3 3 3 3 3 3 4 4 4 4 4 4 4 4 4 4 5
4 4 4 4 3 3 3 3 2 2 1 3 3 3 3 3 2 2 3 3 3 3 3 3 3 3 3 3 3 3 3 3 3 3 4 4 4 4
4 4 4 3 3 3 3 3 2 2 1 2 3 3 3 2 2 2 2 3 3 2 2 2 2 2 3 3 3 3 3 3 3 3 3 3 4 4
4 3 3 3 3 3 3 2 2 1 1 1 2 2 2 2 2 2 2 2 2 2 2 2 2 2 2 2 3 3 3 3 3 3 3 3 3 3
3 3 3 3 3 3 2 2 2 1 1 1 1 1 1 1 1 1 2 2 2 2 1 2 2 2 2 2 2 2 3 3 3 3 3 3 3 3
3 3 3 2 2 2 2 1 1 1 1 1 1 1 1 1 1 1 1 1 1 1 1 1 2 2 2 2 2 2 2 2 2 2 2 2 2 3
3 2 2 2 2 2 1 1 1 0 0 0 0 0 0 0 0 0 0 0 1 1 1 1 1 2 2 1 1 2 2 2 2 2 2 2 2 2
2 2 2 2 2 1 1 1 0 -0 -0 -0 -0 -0 -0 -0 -0 -0 -1 -1 -0 0 1 1 1 1 1 1 1 1 1 1 1 1 2 2 2 2
2 2 2 2 1 1 1 1 0 -0 -0 -1 -1 -1 -0 -0 -1 -1 -1 -1 -1 -0 -0 1 1 1 1 1 1 1 1 1 1 1 1 1 1 1
2 1 1 1 1 0 0 0 0 -0 -0 -1 -1 -1 -1 -1 -1 -1 -1 -1 -0 -0 -0 -0 0 0 1 1 0 0 0 0 0 0 1 1 1 1
2 1 1 1 0 -0 -0 -0 -0 -0 -1 -1 -1 -1 -1 -1 -1 -1 -1 -1 -1 -0 -1 -1 -1 -0 0 0 0 -0 -0 -0 -0 -0 0 0 1 1
1 1 0 0 -0 -0 -1 -1 -1 -1 -1 -1 -1 -0 -1 -1 -1 -1 -2 -2 -2 -2 -1 -1 -1 -1 -1 -1 -0 -1 -0 -0 -0 -0 0 0 0 1
1 0 0 -0 -0 -1 -1 -1 -1 -1 -1 -1 -1 -1 -1 -1 -1 -1 -1 -2 -2 -2 -2 -2 -2 -2 -2 -2 -1 -1 -1 -1 -0 -0 -0 -0 -0 0
0 -0 -0 -0 -1 -1 -1 -1 -1 -1 -1 -1 -1 -2 -2 -2 -2 -2 -2 -2 -2 -2 -2 -2 -2 -2 -2 -2 -2 -1 -1 -1 -1 -1 -0 -0 -0 -0
-1 -1 -1 -1 -1 -1 -1 -1 -2 -2 -2 -2 -2 -2 -2 -2 -2 -2 -2 -2 -2 -2 -2 -2 -2 -2 -2 -2 -2 -2 -1 -1 -1 -1 -1 -1 -1 -0
-1 -1 -1 -1 -1 -1 -2 -2 -2 -2 -2 -2 -2 -3 -3 -2 -2 -2 -2 -2 -2 -2 -2 -2 -2 -2 -2 -2 -2 -2 -2 -2 -2 -1 -1 -1 -1 -1
-1 -1 -1 -1 -2 -2 -2 -2 -2 -2 -2 -3 -3 -3 -3 -3 -3 -3 -3 -3 -3 -2 -2 -2 -2 -2 -2 -2 -2 -2 -2 -2 -2 -1 -1 -1 -1 -1
-2 -2 -2 -2 -2 -2 -2 -2 -3 -3 -3 -3 -3 -3 -3 -3 -3 -3 -3 -3 -3 -3 -3 -3 -2 -2 -2 -2 -2 -2 -2 -2 -2 -2 -2 -2 -2 -1
-2 -2 -3 -3 -3 -3 -3 -3 -3 -3 -3 -3 -3 -3 -4 -4 -3 -3 -3 -3 -3 -3 -3 -3 -3 -3 -3 -3 -3 -2 -3 -2 -2 -2 -2 -2 -2 -2
-3 -3 -3 -3 -3 -3 -3 -3 -3 -3 -4 -4 -4 -4 -4 -4 -4 -4 -4 -4 -3 -3 -3 -3 -3 -3 -3 -3 -3 -3 -3 -3 -2 -2 -2 -2 -2 -2
-3 -3 -3 -4 -3 -3 -3 -3 -4 -4 -4 -4 -4 -4 -4 -4 -4 -4 -4 -4 -4 -3 -3 -3 -3 -3 -3 -3 -3 -3 -3 -3 -3 -3 -3 -2 -2 -2
-4 -4 -4 -4 -4 -4 -4 -4 -4 -4 -4 -4 -4 -4 -4 -4 -4 -4 -4 -4 -4 -4 -4 -4 -4 -4 -3 -3 -3 -3 -3 -3 -3 -3 -3 -2 -3 -3
-4 -4 -4 -4 -4 -4 -4 -4 -4 -4 -4 -4 -4 -4 -4 -4 -4 -4 -4 -4 -4 -4 -4 -4 -4 -4 -4 -4 -4 -3 -3 -3 -3 -3 -2 -2 -2 -2
Wind_Speed
4 4 4 4 4 4 4 4 4 7 10 6 4 4 7 8 13 12 12 17 18 18 18 17 17 18 18 18 18 18 18 17 17 17 18 18 19 19
3 4 4 4 4 4 4 4 4 5 8 7 7 8 9 10 14 12 12 17 17 17 17 17 18 18 18 18 18 17 17 17 17 17 18 18 17 15
4 4 5 5 5 4 4 4 4 5 9 10 8 8 8 9 10 10 11 10 11 16 18 18 18 18 17 17 15 15 16 17 16 16 17 16 15 14
5 5 6 5 6 5 4 5 5 5 7 11 11 9 9 9 9 9 10 10 9 15 17 17 17 17 16 15 15 14 15 15 14 14 15 13 13 14
5 5 6 5 7 5 5 5 5 6 5 8 10 9 8 8 9 9 9 8 9 12 14 14 15 15 14 14 14 13 13 13 12 12 13 12 12 14
4 5 5 6 7 6 6 6 6 6 6 7 8 8 8 8 7 8 9 7 8 9 10 12 13 14 14 14 14 12 12 10 9 10 10 10 11 12
4 5 5 7 9 7 6 6 5 6 6 7 8 8 8 8 8 7 10 10 8 5 7 7 8 7 9 12 12 11 10 9 8 9 9 8 8 9
5 5 6 7 9 10 11 10 8 7 7 7 8 10 11 10 8 8 8 9 8 4 6 8 6 6 7 7 11 11 9 8 9 9 9 8 7 7
4 5 6 6 8 6 9 10 9 10 10 8 9 10 11 10 9 9 8 9 8 7 6 7 5 6 6 8 12 10 9 9 9 9 8 8 8 7
4 5 5 6 6 7 6 6 6 7 8 7 7 9 9 9 8 8 8 8 7 5 3 5 5 5 6 7 10 10 9 10 9 9 9 9 8 8
5 5 5 5 9 10 6 7 8 7 9 11 12 11 13 13 10 5 5 6 7 5 3 3 4 5 5 5 6 9 10 10 10 10 10 9 9 8
4 4 6 7 10 10 6 6 7 8 8 9 9 9 9 9 10 6 5 5 5 4 3 3 3 4 4 3 3 5 6 8 10 10 9 9 9 6
4 4 5 9 10 10 8 5 7 8 6 6 6 6 6 6 6 6 5 4 4 4 4 3 3 3 3 4 4 3 4 4 6 6 8 9 9 6
4 4 5 9 10 10 7 7 9 8 4 4 5 5 6 6 6 6 6 4 3 4 5 4 3 3 3 4 4 4 4 4 4 4 5 8 8 8
4 7 8 8 8 6 7 9 7 4 4 4 5 6 5 6 6 5 5 4 4 4 4 4 3 3 2 2 3 4 4 4 4 4 4 4 4 4
4 5 7 7 6 6 6 6 4 4 4 4 5 5 5 5 5 4 4 4 4 4 5 5 4 2 2 2 2 3 3 3 4 4 4 3 3 4
4 3 4 4 5 5 5 5 4 5 5 4 4 5 5 5 5 5 4 4 3 4 5 5 4 2 1 2 2 3 3 3 3 4 4 4 4 4
4 3 4 4 4 5 5 5 5 5 5 5 4 4 5 5 5 5 4 4 4 4 4 4 4 3 3 3 2 2 3 2 3 4 3 3 4 4
3 3 3 4 4 5 5 5 5 5 5 4 4 4 4 5 4 5 5 4 4 4 4 4 4 3 4 4 4 4 2 3 3 4 3 3 3 4
3 3 4 4 4 5 5 5 5 5 4 4 4 4 4 4 4 4 4 4 4 4 4 4 4 3 2 2 3 3 4 2 2 3 3 3 2 3
3 4 4 4 4 4 5 5 5 4 4 4 4 4 4 4 4 4 4 5 4 3 4 4 4 5 2 1 2 3 4 5 3 1 2 2 3 4
4 4 4 4 4 4 5 5 4 4 4 3 3 4 4 4 4 4 4 4 3 3 3 3 4 3 2 2 2 3 4 5 7 7 5 2 1 2
4 4 4 5 5 4 4 5 5 4 4 3 3 4 4 4 3 3 4 3 3 3 3 3 3 2 2 2 2 2 4 4 4 5 6 9 8 5
Wind_Direction
261 261 265 270 262 259 259 257 273 302 305 296 303 303 314 313 312 312 307 305 308 307 307 308 306 304 304 301 296 293 288 286 284 281 281 281 282 281
266 267 271 275 274 265 262 262 252 264 287 293 299 307 313 314 315 316 312 312 311 309 308 308 307 304 303 303 296 292 290 287 283 281 279 281 280 280
278 276 276 280 281 274 272 271 266 263 281 294 297 305 306 310 313 314 312 310 308 307 307 308 306 304 304 306 300 296 294 291 286 284 283 279 277 279
279 280 283 292 285 279 276 276 273 265 272 291 301 306 305 307 308 310 313 312 307 305 307 307 307 307 307 309 306 302 301 296 289 284 284 280 280 282
271 276 283 288 287 285 283 280 280 284 277 285 296 302 304 307 311 309 308 307 309 312 311 312 311 312 312 310 312 311 314 306 293 287 284 282 284 284
270 272 277 276 276 281 284 279 285 291 291 290 294 300 302 303 306 313 317 318 314 313 312 314 314 315 317 315 317 316 321 322 314 301 296 293 290 287
284 282 282 287 290 291 292 289 290 293 296 296 297 303 306 313 314 313 312 315 313 304 313 314 314 314 317 319 318 318 321 326 328 320 316 311 309 303
293 295 293 290 297 303 303 301 298 296 299 299 301 304 305 307 308 309 311 315 314 317 317 311 316 313 312 316 319 320 325 331 334 334 332 337 333 326
294 301 305 305 309 303 302 307 304 302 300 297 297 299 303 307 307 305 306 305 298 304 311 305 317 313 313 320 328 328 333 340 343 344 344 342 336 331
290 290 295 302 307 312 312 311 308 306 305 305 296 299 303 303 300 296 297 301 296 299 311 301 313 312 318 323 336 345 346 347 350 350 351 351 348 341
295 294 298 300 308 319 321 315 315 317 321 319 319 319 322 321 320 318 313 316 313 312 326 308 306 313 316 325 337 351 351 351 353 354 354 354 350 344
306 301 309 314 316 322 320 316 317 319 323 325 329 333 329 326 329 323 309 308 309 308 332 331 311 326 326 322 332 342 346 350 353 351 352 354 350 348
308 307 305 315 319 322 325 316 312 319 321 325 328 331 336 338 336 330 322 309 306 298 310 322 309 315 301 307 322 333 340 342 345 345 350 354 353 353
305 305 307 316 321 325 330 329 331 336 335 332 333 336 339 337 332 329 325 322 312 299 304 308 294 301 302 305 312 328 342 343 347 343 346 348 353 357
311 321 327 331 333 334 337 340 346 345 336 337 337 332 327 320 322 325 329 334 336 333 334 327 313 308 301 297 306 319 331 338 341 344 343 343 344 350
328 334 344 348 352 347 345 347 348 339 336 331 327 324 325 332 336 335 335 343 351 349 349 353 343 330 323 312 310 322 330 326 339 348 349 348 355 6
338 347 353 353 359 356 351 350 352 351 350 342 336 334 336 342 339 339 341 347 353 346 343 344 344 347 343 341 340 335 340 340 338 352 4 8 6 8
358 356 353 351 347 344 342 343 346 347 345 341 337 337 339 339 337 340 345 348 349 344 340 338 345 357 11 14 7 342 357 352 348 359 13 23 10 5
18 2 348 342 339 337 335 335 333 333 335 337 337 340 340 337 336 343 345 345 346 345 340 342 355 8 16 358 347 6 10 354 1 13 26 30 6 347
9 351 341 337 334 333 332 331 329 334 339 341 340 340 339 336 338 342 343 341 341 343 347 355 2 3 4 328 323 340 353 356 22 23 17 20 13 355
348 342 336 332 327 328 329 328 329 332 334 337 337 334 334 334 335 338 339 341 347 352 354 348 330 326 304 347 25 11 11 16 15 2 3 17 24 31
339 334 332 329 327 326 327 328 330 330 334 337 336 333 331 327 325 331 334 339 344 348 345 337 337 356 29 56 48 18 12 16 24 25 20 10 42 40
332 330 329 327 326 325 326 325 324 324 328 330 329 325 323 321 321 323 324 331 340 348 351 350 359 21 32 39 50 39 24 17 25 31 35 36 48 48
Height
1476 1475 1473 1472 1471 1469 1467 1464 1461 1454 1446 1444 1444 1441 1439 1436 1433 1429 1426 1423 1420 1417 1415 1412 1410 1407 1405 1402 1400 1398 1396 1395 1394 1393 1392 1392 1391 1391
1472 1471 1469 1468 1466 1464 1462 1461 1458 1455 1447 1441 1439 1437 1435 1432 1429 1425 1422 1418 1415 1412 1409 1407 1404 1401 1399 1396 1393 1391 1389 1388 1386 1386 1385 1384 1384 1383
1468 1467 1465 1464 1462 1460 1457 1456 1454 1451 1445 1438 1436 1433 1430 1427 1423 1420 1417 1413 1410 1407 1404 1401 1398 1396 1393 1390 1387 1385 1383 1381 1379 1379 1378 1377 1378 1378
1464 1462 1460 1459 1457 1455 1453 1451 1449 1446 1442 1436 1431 1428 1425 1423 1419 1415 1412 1409 1405 1402 1399 1396 1393 1390 1387 1385 1382 1379 1376 1374 1372 1372 1371 1371 1371 1371
1460 1458 1456 1454 1452 1450 1448 1446 1443 1441 1438 1434 1428 1425 1421 1418 1414 1410 1407 1404 1400 1397 1394 1391 1388 1385 1382 1380 1377 1374 1371 1368 1366 1366 1366 1366 1366 1366
1455 1453 1452 1450 1448 1445 1443 1441 1439 1436 1433 1430 1425 1421 1417 1414 1411 1406 1401 1399 1395 1393 1390 1387 1383 1381 1378 1375 1372 1369 1366 1363 1362 1362 1361 1361 1360 1360
1451 1449 1448 1446 1444 1442 1439 1436 1434 1431 1429 1425 1421 1417 1414 1410 1407 1403 1399 1394 1391 1389 1385 1382 1379 1376 1373 1370 1367 1365 1362 1360 1359 1358 1357 1356 1356 1356
1447 1445 1443 1442 1440 1438 1435 1433 1431 1428 1425 1422 1418 1414 1410 1407 1404 1400 1396 1392 1387 1385 1382 1378 1376 1372 1370 1367 1364 1362 1359 1358 1357 1356 1355 1353 1353 1353
1443 1441 1439 1437 1435 1433 1430 1428 1427 1425 1422 1419 1415 1411 1407 1404 1401 1397 1394 1390 1386 1383 1380 1375 1373 1370 1367 1364 1362 1360 1358 1356 1355 1354 1353 1351 1351 1350
1439 1437 1435 1432 1430 1428 1426 1424 1422 1420 1417 1415 1412 1408 1404 1401 1398 1395 1391 1387 1383 1381 1378 1373 1370 1367 1365 1362 1360 1358 1356 1355 1353 1352 1351 1350 1349 1348
1436 1434 1432 1429 1427 1425 1423 1420 1417 1415 1413 1410 1408 1404 1401 1397 1394 1391 1387 1384 1380 1377 1375 1372 1368 1365 1362 1361 1359 1357 1356 1354 1352 1350 1349 1348 1347 1347
1432 1430 1428 1426 1424 1422 1419 1416 1413 1411 1408 1405 1403 1400 1397 1394 1391 1389 1385 1382 1379 1375 1373 1371 1367 1365 1361 1359 1358 1357 1355 1353 1351 1350 1348 1347 1346 1345
1428 1427 1425 1423 1421 1419 1417 1414 1411 1409 1405 1402 1399 1396 1394 1391 1389 1386 1384 1381 1378 1375 1373 1370 1367 1364 1363 1359 1357 1356 1354 1352 1350 1349 1348 1346 1346 1345
1426 1424 1422 1420 1418 1416 1414 1411 1409 1406 1403 1400 1397 1394 1391 1389 1387 1384 1382 1379 1377 1374 1371 1369 1366 1364 1361 1359 1357 1355 1354 1352 1350 1349 1347 1346 1345 1344
1423 1421 1419 1417 1415 1413 1411 1409 1406 1404 1401 1398 1395 1393 1391 1388 1386 1383 1380 1378 1376 1373 1371 1368 1366 1364 1362 1359 1357 1355 1353 1352 1351 1349 1347 1346 1345 1344
1421 1419 1417 1415 1413 1411 1409 1407 1404 1402 1400 1397 1395 1392 1390 1388 1385 1382 1380 1377 1374 1372 1371 1368 1366 1364 1361 1360 1358 1356 1354 1352 1351 1349 1348 1346 1345 1344
1419 1417 1414 1412 1410 1409 1407 1405 1403 1401 1399 1396 1394 1392 1389 1387 1385 1382 1380 1377 1374 1372 1370 1368 1366 1364 1362 1360 1358 1357 1355 1353 1352 1350 1348 1347 1346 1345
1417 1414 1412 1411 1409 1407 1405 1403 1402 1400 1397 1396 1394 1391 1389 1387 1384 1382 1380 1378 1375 1373 1370 1368 1366 1364 1362 1360 1360 1357 1356 1354 1353 1352 1350 1348 1347 1346
1415 1413 1411 1410 1408 1406 1404 1402 1400 1399 1397 1395 1393 1391 1389 1387 1384 1382 1380 1378 1376 1374 1371 1369 1367 1365 1362 1360 1360 1359 1358 1356 1354 1353 1352 1351 1349 1347
1413 1412 1410 1409 1407 1406 1404 1402 1400 1398 1396 1394 1393 1391 1389 1387 1384 1382 1381 1379 1376 1374 1372 1370 1368 1366 1364 1363 1361 1360 1360 1358 1356 1355 1354 1352 1351 1350
1412 1411 1410 1408 1406 1405 1403 1401 1399 1397 1396 1394 1392 1390 1388 1386 1385 1383 1381 1379 1377 1375 1373 1371 1370 1368 1366 1365 1363 1362 1361 1361 1359 1357 1356 1354 1352 1351
1412 1410 1408 1407 1405 1404 1402 1400 1398 1396 1395 1393 1391 1390 1388 1386 1385 1383 1381 1380 1378 1376 1374 1373 1371 1370 1368 1366 1364 1363 1363 1362 1362 1361 1359 1358 1356 1354
1410 1409 1407 1406 1404 1402 1400 1399 1397 1395 1394 1392 1391 1389 1388 1386 1385 1383 1382 1380 1378 1377 1375 1374 1372 1371 1369 1368 1367 1366 1365 1364 1363 1362 1361 1361 1359 1358